World > North America > United States > Nevada

Winnemucca Indian Colony, Nevada Regional Weather

Lat: 40.98N, Lon: 117.74W
Wx Zone: NVZ030
Feedback

Winnemucca Indian Colony, NV Regional Weather

Expires:201910162100;;809491
ASUS45 KREV 162010
RWRNV 
NEVADA REGIONAL WEATHER ROUNDUP
NATIONAL WEATHER SERVICE RENO NV
100 PM PDT WED OCT 16 2019

NOTE: "FAIR" INDICATES FEW OR NO CLOUDS BELOW 12,000 FEET WITH NO
SIGNIFICANT WEATHER AND/OR OBSTRUCTIONS TO VISIBILITY.


NVZ030-031-036-162100-
NORTHERN NEVADA
  
CITY           SKY/WX    TMP DP  RH WIND       PRES   REMARKS
ELKO           MOSUNNY   68  20  16 CALM      30.08F                  
WINNEMUCCA     CLOUDY    71  12  10 NE6       30.02F                  
BATTLE MOUNTAI CLOUDY    72  10   9 CALM      30.04F                  
WENDOVER       SUNNY     58  29  33 E6        30.12F                  
$$


SKY/WX - Weather  TMP - Temperature  DP - Dew Point  RH - Relative Humidity
WIND - Wind Direction/Speed PRES - Barometric Pressure VSB - Visibility
WCI - Wind Chill Index E13G22 Wind - East Wind 13 mph/Gusts of 22 mph